Time,TemperatureF,DewpointF,PressureIn,WindDirection,WindDirectionDegrees,WindSpeedMPH,WindSpeedGustMPH,Humidity,HourlyPrecipIn,Conditions,Clouds,dailyrainin,SoftwareType,DateUTC
2013-01-23 00:00:00,37.9,27.2,30.32,SE,142,0.0,5.0,65,0.00,,,0.00,Weather View 32 v70,2013-01-23 06:00:00,
2013-01-23 00:05:00,37.8,27.1,30.32,SE,142,0.0,5.0,65,0.00,,,0.00,Weather View 32 v70,2013-01-23 06:05:00,
2013-01-23 00:15:00,37.6,26.9,30.32,SE,142,0.0,5.0,65,0.00,,,0.00,Weather View 32 v70,2013-01-23 06:15:00,
2013-01-23 00:25:00,37.5,27.2,30.32,SE,142,0.0,2.0,66,0.00,,,0.00,Weather View 32 v70,2013-01-23 06:25:00,
2013-01-23 00:35:00,37.3,27.0,30.31,SE,142,0.0,1.0,66,0.00,,,0.00,Weather View 32 v70,2013-01-23 06:35:00,
2013-01-23 00:45:00,37.2,27.2,30.31,SE,142,0.0,1.0,67,0.00,,,0.00,Weather View 32 v70,2013-01-23 06:45:00,
2013-01-23 00:55:00,37.0,27.4,30.31,SE,142,0.0,1.0,68,0.00,,,0.00,Weather View 32 v70,2013-01-23 06:55:00,
2013-01-23 01:00:00,36.9,27.3,30.30,SE,142,0.0,3.0,68,0.00,,,0.00,Weather View 32 v70,2013-01-23 07:00:00,
2013-01-23 01:05:00,36.9,27.3,30.30,SE,142,0.0,5.0,68,0.00,,,0.00,Weather View 32 v70,2013-01-23 07:05:00,
2013-01-23 01:15:00,36.8,27.2,30.30,SE,142,0.0,6.0,68,0.00,,,0.00,Weather View 32 v70,2013-01-23 07:15:00,
2013-01-23 01:25:00,36.8,27.6,30.30,SE,142,0.0,6.0,69,0.00,,,0.00,Weather View 32 v70,2013-01-23 07:25:00,
2013-01-23 01:35:00,36.6,27.4,30.30,SE,142,0.0,6.0,69,0.00,,,0.00,Weather View 32 v70,2013-01-23 07:35:00,
2013-01-23 01:40:00,36.6,27.4,30.30,SE,142,0.0,6.0,69,0.00,,,0.00,Weather View 32 v70,2013-01-23 07:40:00,
2013-01-23 01:50:00,36.4,27.2,30.29,SE,142,0.0,6.0,69,0.00,,,0.00,Weather View 32 v70,2013-01-23 07:50:00,
2013-01-23 01:59:00,36.3,27.4,30.29,SE,142,0.0,6.0,70,0.00,,,0.00,Weather View 32 v70,2013-01-23 07:59:00,
2013-01-23 02:05:00,36.1,27.3,30.29,SE,142,0.0,6.0,70,0.00,,,0.00,Weather View 32 v70,2013-01-23 08:05:00,
2013-01-23 02:15:00,36.0,27.5,30.30,SE,142,0.0,4.0,71,0.00,,,0.00,Weather View 32 v70,2013-01-23 08:15:00,
2013-01-23 02:25:00,35.7,27.2,30.30,SE,142,0.0,4.0,71,0.00,,,0.00,Weather View 32 v70,2013-01-23 08:25:00,
2013-01-23 02:35:00,35.4,27.3,30.30,SE,142,0.0,4.0,72,0.00,,,0.00,Weather View 32 v70,2013-01-23 08:35:00,
2013-01-23 02:45:00,35.3,27.2,30.30,SE,142,0.0,4.0,72,0.00,,,0.00,Weather View 32 v70,2013-01-23 08:45:00,
2013-01-23 02:55:00,35.5,27.7,30.30,SE,143,0.0,3.0,73,0.00,,,0.00,Weather View 32 v70,2013-01-23 08:55:00,
2013-01-23 03:00:00,35.5,27.4,30.30,SE,142,0.0,3.0,72,0.00,,,0.00,Weather View 32 v70,2013-01-23 09:00:00,
2013-01-23 03:10:00,35.4,27.6,30.30,SE,142,0.0,2.0,73,0.00,,,0.00,Weather View 32 v70,2013-01-23 09:10:00,
2013-01-23 03:20:00,35.3,27.5,30.29,SE,142,0.0,2.0,73,0.00,,,0.00,Weather View 32 v70,2013-01-23 09:20:00,
2013-01-23 03:30:00,35.0,26.9,30.29,SE,142,0.0,2.0,72,0.00,,,0.00,Weather View 32 v70,2013-01-23 09:30:00,
2013-01-23 03:35:00,34.9,26.8,30.29,SE,142,0.0,0.0,72,0.00,,,0.00,Weather View 32 v70,2013-01-23 09:35:00,
2013-01-23 03:45:00,34.5,26.7,30.29,SE,142,0.0,0.0,73,0.00,,,0.00,Weather View 32 v70,2013-01-23 09:45:00,
2013-01-23 03:55:00,34.5,27.1,30.30,SE,142,0.0,0.0,74,0.00,,,0.00,Weather View 32 v70,2013-01-23 09:55:00,
2013-01-23 04:00:00,34.5,26.7,30.30,SE,142,0.0,0.0,73,0.00,,,0.00,Weather View 32 v70,2013-01-23 10:00:00,
2013-01-23 04:10:00,34.2,26.4,30.30,SE,142,0.0,0.0,73,0.00,,,0.00,Weather View 32 v70,2013-01-23 10:10:00,
2013-01-23 04:15:00,34.2,26.4,30.30,SE,142,0.0,0.0,73,0.00,,,0.00,Weather View 32 v70,2013-01-23 10:15:00,
2013-01-23 04:25:00,34.4,27.0,30.30,SE,142,0.0,0.0,74,0.00,,,0.00,Weather View 32 v70,2013-01-23 10:25:00,
2013-01-23 04:35:00,34.4,26.6,30.30,SE,142,0.0,0.0,73,0.00,,,0.00,Weather View 32 v70,2013-01-23 10:35:00,
2013-01-23 04:45:00,34.4,27.0,30.30,SE,142,0.0,0.0,74,0.00,,,0.00,Weather View 32 v70,2013-01-23 10:45:00,
2013-01-23 04:55:00,34.4,27.0,30.30,SE,142,0.0,0.0,74,0.00,,,0.00,Weather View 32 v70,2013-01-23 10:55:00,
2013-01-23 05:01:00,34.4,27.0,30.29,SE,142,0.0,1.0,74,0.00,,,0.00,Weather View 32 v70,2013-01-23 11:01:00,
2013-01-23 05:10:00,34.4,27.0,30.29,SE,143,0.0,1.0,74,0.00,,,0.00,Weather View 32 v70,2013-01-23 11:10:00,
2013-01-23 05:20:00,34.2,26.8,30.29,SE,142,0.0,1.0,74,0.00,,,0.00,Weather View 32 v70,2013-01-23 11:20:00,
2013-01-23 05:30:00,34.1,26.7,30.29,SE,142,0.0,1.0,74,0.00,,,0.00,Weather View 32 v70,2013-01-23 11:30:00,
2013-01-23 05:40:00,34.0,26.9,30.29,SE,142,0.0,1.0,75,0.00,,,0.00,Weather View 32 v70,2013-01-23 11:40:00,
2013-01-23 05:50:00,33.9,26.8,30.28,SE,143,0.0,1.0,75,0.00,,,0.00,Weather View 32 v70,2013-01-23 11:50:00,
2013-01-23 06:00:00,33.8,26.7,30.29,SE,142,0.0,2.0,75,0.00,,,0.00,Weather View 32 v70,2013-01-23 12:00:00,
2013-01-23 06:05:00,33.7,26.6,30.29,SE,142,0.0,2.0,75,0.00,,,0.00,Weather View 32 v70,2013-01-23 12:05:00,
2013-01-23 06:15:00,33.6,26.5,30.29,SE,142,1.0,3.0,75,0.00,,,0.00,Weather View 32 v70,2013-01-23 12:15:00,
2013-01-23 06:25:00,33.5,26.7,30.29,SE,142,0.0,3.0,76,0.00,,,0.00,Weather View 32 v70,2013-01-23 12:25:00,
2013-01-23 06:30:00,33.5,26.7,30.29,SE,142,0.0,5.0,76,0.00,,,0.00,Weather View 32 v70,2013-01-23 12:30:00,
2013-01-23 06:35:00,33.5,26.7,30.28,SE,142,0.0,5.0,76,0.00,,,0.00,Weather View 32 v70,2013-01-23 12:35:00,
2013-01-23 06:45:00,33.5,26.7,30.29,SE,143,0.0,5.0,76,0.00,,,0.00,Weather View 32 v70,2013-01-23 12:45:00,
2013-01-23 06:50:00,33.4,26.6,30.29,SE,142,0.0,5.0,76,0.00,,,0.00,Weather View 32 v70,2013-01-23 12:50:00,
2013-01-23 07:00:00,33.4,26.6,30.29,SE,143,0.0,5.0,76,0.00,,,0.00,Weather View 32 v70,2013-01-23 13:00:00,
2013-01-23 07:05:00,33.4,26.6,30.29,SE,142,0.0,5.0,76,0.00,,,0.00,Weather View 32 v70,2013-01-23 13:05:00,
2013-01-23 07:15:00,33.3,26.5,30.29,SE,142,0.0,5.0,76,0.00,,,0.00,Weather View 32 v70,2013-01-23 13:15:00,
2013-01-23 07:20:00,33.2,26.5,30.29,SE,142,0.0,5.0,76,0.00,,,0.00,Weather View 32 v70,2013-01-23 13:20:00,
2013-01-23 07:30:00,33.1,26.7,30.29,SE,142,0.0,5.0,77,0.00,,,0.00,Weather View 32 v70,2013-01-23 13:30:00,
2013-01-23 07:35:00,33.1,26.7,30.29,SE,142,0.0,5.0,77,0.00,,,0.00,Weather View 32 v70,2013-01-23 13:35:00,
2013-01-23 07:40:00,33.2,26.8,30.30,SE,142,0.0,5.0,77,0.00,,,0.00,Weather View 32 v70,2013-01-23 13:40:00,
2013-01-23 07:45:00,33.2,26.8,30.30,SE,142,0.0,3.0,77,0.00,,,0.00,Weather View 32 v70,2013-01-23 13:45:00,
2013-01-23 07:50:00,33.4,27.0,30.30,SE,142,0.0,2.0,77,0.00,,,0.00,Weather View 32 v70,2013-01-23 13:50:00,
2013-01-23 07:55:00,33.7,27.3,30.30,SE,142,0.0,2.0,77,0.00,,,0.00,Weather View 32 v70,2013-01-23 13:55:00,
2013-01-23 08:00:00,33.9,27.1,30.31,SE,142,0.0,2.0,76,0.00,,,0.00,Weather View 32 v70,2013-01-23 14:00:00,
2013-01-23 08:05:00,34.1,27.3,30.31,SE,142,0.0,2.0,76,0.00,,,0.00,Weather View 32 v70,2013-01-23 14:05:00,
2013-01-23 08:10:00,34.5,27.7,30.31,SE,142,0.0,2.0,76,0.00,,,0.00,Weather View 32 v70,2013-01-23 14:10:00,
2013-01-23 08:15:00,34.9,27.8,30.31,SE,142,0.0,2.0,75,0.00,,,0.00,Weather View 32 v70,2013-01-23 14:15:00,
2013-01-23 08:20:00,35.0,27.5,30.31,SE,142,2.0,2.0,74,0.00,,,0.00,Weather View 32 v70,2013-01-23 14:20:00,
2013-01-23 08:25:00,35.1,27.6,30.30,SE,142,1.0,3.0,74,0.00,,,0.00,Weather View 32 v70,2013-01-23 14:25:00,
2013-01-23 08:30:00,35.2,27.7,30.30,SE,142,0.0,3.0,74,0.00,,,0.00,Weather View 32 v70,2013-01-23 14:30:00,
2013-01-23 08:35:00,35.4,27.9,30.30,SE,142,0.0,3.0,74,0.00,,,0.00,Weather View 32 v70,2013-01-23 14:35:00,
2013-01-23 08:40:00,35.7,28.2,30.31,SE,142,2.0,4.0,74,0.00,,,0.00,Weather View 32 v70,2013-01-23 14:40:00,
2013-01-23 08:45:00,36.0,28.2,30.31,SE,142,1.0,4.0,73,0.00,,,0.00,Weather View 32 v70,2013-01-23 14:45:00,
2013-01-23 08:50:00,36.2,28.4,30.30,SE,142,0.0,4.0,73,0.00,,,0.00,Weather View 32 v70,2013-01-23 14:50:00,
2013-01-23 08:55:00,36.6,28.4,30.31,SE,142,0.0,4.0,72,0.00,,,0.00,Weather View 32 v70,2013-01-23 14:55:00,
2013-01-23 09:00:00,37.1,28.9,30.31,SE,142,0.0,4.0,72,0.00,,,0.00,Weather View 32 v70,2013-01-23 15:00:00,
2013-01-23 09:10:00,37.9,29.3,30.31,SE,143,0.0,6.0,71,0.00,,,0.00,Weather View 32 v70,2013-01-23 15:10:00,
2013-01-23 09:20:00,38.5,29.6,30.31,SSE,147,0.0,6.0,70,0.00,,,0.00,Weather View 32 v70,2013-01-23 15:20:00,
2013-01-23 09:25:00,38.6,29.7,30.32,SSE,147,2.0,6.0,70,0.00,,,0.00,Weather View 32 v70,2013-01-23 15:25:00,
2013-01-23 09:30:00,38.8,29.8,30.31,SSE,147,0.0,6.0,70,0.00,,,0.00,Weather View 32 v70,2013-01-23 15:30:00,
2013-01-23 09:35:00,39.3,30.3,30.31,SSE,147,0.0,6.0,70,0.00,,,0.00,Weather View 32 v70,2013-01-23 15:35:00,
2013-01-23 09:40:00,39.7,30.4,30.31,SSE,147,4.0,6.0,69,0.00,,,0.00,Weather View 32 v70,2013-01-23 15:40:00,
2013-01-23 09:45:00,40.0,30.6,30.31,SSE,149,1.0,7.0,69,0.00,,,0.00,Weather View 32 v70,2013-01-23 15:45:00,
2013-01-23 09:50:00,40.5,31.1,30.31,SSE,150,0.0,7.0,69,0.00,,,0.00,Weather View 32 v70,2013-01-23 15:50:00,
2013-01-23 09:55:00,41.2,31.4,30.32,SSE,149,0.0,7.0,68,0.00,,,0.00,Weather View 32 v70,2013-01-23 15:55:00,
2013-01-23 10:00:00,41.8,31.6,30.33,SSE,150,0.0,7.0,67,0.00,,,0.00,Weather View 32 v70,2013-01-23 16:00:00,
2013-01-23 10:05:00,42.1,31.9,30.32,SSE,149,0.0,7.0,67,0.00,,,0.00,Weather View 32 v70,2013-01-23 16:05:00,
2013-01-23 10:10:00,42.4,32.2,30.32,SSE,150,2.0,7.0,67,0.00,,,0.00,Weather View 32 v70,2013-01-23 16:10:00,
2013-01-23 10:20:00,43.4,32.8,30.32,SSE,150,0.0,7.0,66,0.00,,,0.00,Weather View 32 v70,2013-01-23 16:20:00,
2013-01-23 10:25:00,44.1,33.1,30.32,SSE,154,5.0,7.0,65,0.00,,,0.00,Weather View 32 v70,2013-01-23 16:25:00,
2013-01-23 10:30:00,44.3,33.3,30.32,SSE,154,1.0,7.0,65,0.00,,,0.00,Weather View 32 v70,2013-01-23 16:30:00,
2013-01-23 10:40:00,45.1,34.0,30.32,SSE,159,6.0,8.0,65,0.00,,,0.00,Weather View 32 v70,2013-01-23 16:40:00,
2013-01-23 10:45:00,45.7,34.6,30.32,South,170,4.0,8.0,65,0.00,,,0.00,Weather View 32 v70,2013-01-23 16:45:00,
2013-01-23 10:50:00,46.0,34.9,30.31,SSE,147,6.0,8.0,65,0.00,,,0.00,Weather View 32 v70,2013-01-23 16:50:00,
2013-01-23 10:55:00,46.3,35.2,30.31,SSE,164,4.0,8.0,65,0.00,,,0.00,Weather View 32 v70,2013-01-23 16:55:00,
2013-01-23 11:00:00,46.3,35.2,30.31,SSE,168,6.0,8.0,65,0.00,,,0.00,Weather View 32 v70,2013-01-23 17:00:00,
2013-01-23 11:05:00,46.7,35.5,30.30,South,187,4.0,8.0,65,0.00,,,0.00,Weather View 32 v70,2013-01-23 17:05:00,
2013-01-23 11:10:00,47.0,35.0,30.30,South,179,3.0,8.0,63,0.00,,,0.00,Weather View 32 v70,2013-01-23 17:10:00,
2013-01-23 11:15:00,47.2,35.2,30.30,South,179,6.0,9.0,63,0.00,,,0.00,Weather View 32 v70,2013-01-23 17:15:00,
2013-01-23 11:20:00,47.4,35.8,30.29,SSW,195,7.0,9.0,64,0.00,,,0.00,Weather View 32 v70,2013-01-23 17:20:00,
2013-01-23 11:25:00,47.4,35.8,30.29,South,173,3.0,9.0,64,0.00,,,0.00,Weather View 32 v70,2013-01-23 17:25:00,
2013-01-23 11:35:00,48.1,36.5,30.29,South,190,8.0,9.0,64,0.00,,,0.00,Weather View 32 v70,2013-01-23 17:35:00,
2013-01-23 11:40:00,48.5,36.5,30.29,South,188,2.0,9.0,63,0.00,,,0.00,Weather View 32 v70,2013-01-23 17:40:00,
2013-01-23 11:50:00,49.5,37.0,30.28,South,182,0.0,9.0,62,0.00,,,0.00,Weather View 32 v70,2013-01-23 17:50:00,
2013-01-23 11:55:00,49.9,37.4,30.28,South,190,0.0,9.0,62,0.00,,,0.00,Weather View 32 v70,2013-01-23 17:55:00,
2013-01-23 12:00:00,50.4,37.4,30.27,South,185,2.0,9.0,61,0.00,,,0.00,Weather View 32 v70,2013-01-23 18:00:00,
2013-01-23 12:10:00,51.6,38.1,30.26,SW,223,0.0,9.0,60,0.00,,,0.00,Weather View 32 v70,2013-01-23 18:10:00,
2013-01-23 12:15:00,51.9,38.8,30.26,SSW,208,2.0,8.0,61,0.00,,,0.00,Weather View 32 v70,2013-01-23 18:15:00,
2013-01-23 12:25:00,52.3,38.8,30.25,SSE,164,3.0,8.0,60,0.00,,,0.00,Weather View 32 v70,2013-01-23 18:25:00,
2013-01-23 12:30:00,52.8,39.3,30.25,South,182,0.0,8.0,60,0.00,,,0.00,Weather View 32 v70,2013-01-23 18:30:00,
2013-01-23 12:40:00,53.8,39.3,30.24,SSE,162,4.0,8.0,58,0.00,,,0.00,Weather View 32 v70,2013-01-23 18:40:00,
2013-01-23 12:45:00,54.4,39.5,30.24,SSE,166,3.0,8.0,57,0.00,,,0.00,Weather View 32 v70,2013-01-23 18:45:00,
2013-01-23 12:55:00,55.3,39.8,30.23,SSE,168,0.0,8.0,56,0.00,,,0.00,Weather View 32 v70,2013-01-23 18:55:00,
2013-01-23 13:00:00,55.6,40.1,30.23,SSE,168,0.0,8.0,56,0.00,,,0.00,Weather View 32 v70,2013-01-23 19:00:00,
2013-01-23 13:05:00,56.3,40.3,30.23,SE,139,4.0,8.0,55,0.00,,,0.00,Weather View 32 v70,2013-01-23 19:05:00,
2013-01-23 13:15:00,57.0,40.5,30.22,South,176,0.0,8.0,54,0.00,,,0.00,Weather View 32 v70,2013-01-23 19:15:00,
2013-01-23 13:25:00,57.9,40.8,30.22,SSE,160,0.0,8.0,53,0.00,,,0.00,Weather View 32 v70,2013-01-23 19:25:00,
2013-01-23 13:35:00,58.9,41.3,30.21,South,170,0.0,6.0,52,0.00,,,0.00,Weather View 32 v70,2013-01-23 19:35:00,
2013-01-23 13:40:00,59.4,41.2,30.21,South,170,4.0,7.0,51,0.00,,,0.00,Weather View 32 v70,2013-01-23 19:40:00,
2013-01-23 13:50:00,59.5,41.8,30.20,SE,141,0.0,7.0,52,0.00,,,0.00,Weather View 32 v70,2013-01-23 19:50:00,
2013-01-23 13:55:00,59.8,42.6,30.20,SE,141,0.0,7.0,53,0.00,,,0.00,Weather View 32 v70,2013-01-23 19:55:00,
2013-01-23 14:05:00,60.2,42.5,30.21,SSE,147,2.0,7.0,52,0.00,,,0.00,Weather View 32 v70,2013-01-23 20:05:00,
2013-01-23 14:10:00,60.3,43.1,30.21,SSE,147,0.0,7.0,53,0.00,,,0.00,Weather View 32 v70,2013-01-23 20:10:00,
2013-01-23 14:15:00,60.5,43.2,30.21,SE,136,0.0,7.0,53,0.00,,,0.00,Weather View 32 v70,2013-01-23 20:15:00,
2013-01-23 14:25:00,61.0,43.2,30.20,SE,140,0.0,7.0,52,0.00,,,0.00,Weather View 32 v70,2013-01-23 20:25:00,
2013-01-23 14:30:00,61.2,43.4,30.20,SE,141,5.0,7.0,52,0.00,,,0.00,Weather View 32 v70,2013-01-23 20:30:00,
2013-01-23 14:40:00,61.3,43.5,30.20,SSE,148,3.0,7.0,52,0.00,,,0.00,Weather View 32 v70,2013-01-23 20:40:00,
2013-01-23 14:45:00,61.3,43.5,30.20,SSE,148,5.0,7.0,52,0.00,,,0.00,Weather View 32 v70,2013-01-23 20:45:00,
2013-01-23 14:50:00,61.0,43.2,30.20,SSE,147,3.0,7.0,52,0.00,,,0.00,Weather View 32 v70,2013-01-23 20:50:00,
2013-01-23 14:55:00,60.9,43.6,30.20,SSE,147,1.0,7.0,53,0.00,,,0.00,Weather View 32 v70,2013-01-23 20:55:00,
2013-01-23 15:05:00,60.9,43.1,30.20,SSE,147,4.0,7.0,52,0.00,,,0.00,Weather View 32 v70,2013-01-23 21:05:00,
2013-01-23 15:15:00,61.7,43.3,30.19,SE,146,2.0,7.0,51,0.00,,,0.00,Weather View 32 v70,2013-01-23 21:15:00,
2013-01-23 15:25:00,62.5,43.0,30.19,SE,146,0.0,7.0,49,0.00,,,0.00,Weather View 32 v70,2013-01-23 21:25:00,
2013-01-23 15:35:00,62.2,42.8,30.19,ESE,116,3.0,7.0,49,0.00,,,0.00,Weather View 32 v70,2013-01-23 21:35:00,
2013-01-23 15:40:00,62.3,42.8,30.19,ESE,122,0.0,7.0,49,0.00,,,0.00,Weather View 32 v70,2013-01-23 21:40:00,
2013-01-23 15:50:00,62.4,43.5,30.18,ESE,122,0.0,7.0,50,0.00,,,0.00,Weather View 32 v70,2013-01-23 21:50:00,
2013-01-23 16:00:00,63.0,43.5,30.18,SE,129,2.0,7.0,49,0.00,,,0.00,Weather View 32 v70,2013-01-23 22:00:00,
2013-01-23 16:05:00,63.0,43.5,30.18,SE,129,3.0,7.0,49,0.00,,,0.00,Weather View 32 v70,2013-01-23 22:05:00,
2013-01-23 16:10:00,62.7,43.7,30.18,SE,130,3.0,6.0,50,0.00,,,0.00,Weather View 32 v70,2013-01-23 22:10:00,
2013-01-23 16:15:00,62.6,43.7,30.18,SE,130,0.0,6.0,50,0.00,,,0.00,Weather View 32 v70,2013-01-23 22:15:00,
2013-01-23 16:25:00,62.2,43.8,30.18,SE,128,3.0,6.0,51,0.00,,,0.00,Weather View 32 v70,2013-01-23 22:25:00,
2013-01-23 16:35:00,62.3,43.9,30.18,SE,128,0.0,6.0,51,0.00,,,0.00,Weather View 32 v70,2013-01-23 22:35:00,
2013-01-23 16:40:00,62.2,43.8,30.19,SE,128,3.0,6.0,51,0.00,,,0.00,Weather View 32 v70,2013-01-23 22:40:00,
2013-01-23 16:45:00,62.0,44.1,30.18,SE,128,0.0,6.0,52,0.00,,,0.00,Weather View 32 v70,2013-01-23 22:45:00,
2013-01-23 16:55:00,61.6,44.3,30.18,SE,128,4.0,6.0,53,0.00,,,0.00,Weather View 32 v70,2013-01-23 22:55:00,
2013-01-23 17:00:00,61.2,44.4,30.18,SE,128,0.0,6.0,54,0.00,,,0.00,Weather View 32 v70,2013-01-23 23:00:00,
2013-01-23 17:08:00,61.0,44.2,30.18,SE,128,0.0,6.0,54,0.00,,,0.00,Weather View 32 v70,2013-01-23 23:08:00,
2013-01-23 17:15:00,60.4,44.1,30.18,SE,128,1.0,6.0,55,0.00,,,0.00,Weather View 32 v70,2013-01-23 23:15:00,
2013-01-23 17:25:00,59.9,44.1,30.18,SE,128,0.0,5.0,56,0.00,,,0.00,Weather View 32 v70,2013-01-23 23:25:00,
2013-01-23 17:30:00,59.7,43.9,30.18,SE,128,0.0,5.0,56,0.00,,,0.00,Weather View 32 v70,2013-01-23 23:30:00,
2013-01-23 17:40:00,59.3,44.0,30.18,SE,128,0.0,5.0,57,0.00,,,0.00,Weather View 32 v70,2013-01-23 23:40:00,
2013-01-23 17:45:00,59.0,44.2,30.19,SE,128,0.0,5.0,58,0.00,,,0.00,Weather View 32 v70,2013-01-23 23:45:00,
2013-01-23 17:50:00,58.8,44.0,30.19,SE,128,0.0,5.0,58,0.00,,,0.00,Weather View 32 v70,2013-01-23 23:50:00,
2013-01-23 17:55:00,58.6,44.3,30.19,SE,128,0.0,5.0,59,0.00,,,0.00,Weather View 32 v70,2013-01-23 23:55:00,
2013-01-23 18:00:00,58.3,44.0,30.19,SE,128,0.0,3.0,59,0.00,,,0.00,Weather View 32 v70,2013-01-24 00:00:00,
2013-01-23 18:08:00,58.1,43.8,30.19,SE,128,0.0,3.0,59,0.00,,,0.00,Weather View 32 v70,2013-01-24 00:08:00,
2013-01-23 18:15:00,57.6,43.8,30.19,SE,128,0.0,3.0,60,0.00,,,0.00,Weather View 32 v70,2013-01-24 00:15:00,
2013-01-23 18:20:00,57.4,44.0,30.19,SE,128,0.0,3.0,61,0.00,,,0.00,Weather View 32 v70,2013-01-24 00:20:00,
2013-01-23 18:25:00,57.1,43.7,30.19,SE,128,0.0,3.0,61,0.00,,,0.00,Weather View 32 v70,2013-01-24 00:25:00,
2013-01-23 18:35:00,56.5,43.6,30.19,SE,129,0.0,3.0,62,0.00,,,0.00,Weather View 32 v70,2013-01-24 00:35:00,
2013-01-23 18:40:00,56.1,43.2,30.19,SE,128,0.0,2.0,62,0.00,,,0.00,Weather View 32 v70,2013-01-24 00:40:00,
2013-01-23 18:45:00,55.8,43.4,30.19,SE,128,0.0,0.0,63,0.00,,,0.00,Weather View 32 v70,2013-01-24 00:45:00,
2013-01-23 18:50:00,55.4,43.4,30.20,SE,128,0.0,0.0,64,0.00,,,0.00,Weather View 32 v70,2013-01-24 00:50:00,
2013-01-23 18:55:00,55.1,43.5,30.20,SE,128,0.0,0.0,65,0.00,,,0.00,Weather View 32 v70,2013-01-24 00:55:00,
2013-01-23 19:00:00,54.8,43.6,30.20,SE,128,0.0,0.0,66,0.00,,,0.00,Weather View 32 v70,2013-01-24 01:00:00,
2013-01-23 19:05:00,54.4,43.3,30.20,SE,128,0.0,0.0,66,0.00,,,0.00,Weather View 32 v70,2013-01-24 01:05:00,
2013-01-23 19:10:00,54.2,43.5,30.20,SE,128,0.0,0.0,67,0.00,,,0.00,Weather View 32 v70,2013-01-24 01:10:00,
2013-01-23 19:15:00,54.0,43.3,30.21,SE,128,0.0,0.0,67,0.00,,,0.00,Weather View 32 v70,2013-01-24 01:15:00,
2013-01-23 19:25:00,53.0,42.7,30.20,SE,128,0.0,0.0,68,0.00,,,0.00,Weather View 32 v70,2013-01-24 01:25:00,
2013-01-23 19:30:00,52.6,42.3,30.21,SE,128,0.0,0.0,68,0.00,,,0.00,Weather View 32 v70,2013-01-24 01:30:00,
2013-01-23 19:40:00,52.0,42.5,30.22,SE,128,0.0,0.0,70,0.00,,,0.00,Weather View 32 v70,2013-01-24 01:40:00,
2013-01-23 19:50:00,51.8,42.7,30.22,SE,128,0.0,0.0,71,0.00,,,0.00,Weather View 32 v70,2013-01-24 01:50:00,
2013-01-23 19:55:00,51.8,42.7,30.22,SE,128,0.0,0.0,71,0.00,,,0.00,Weather View 32 v70,2013-01-24 01:55:00,
2013-01-23 20:05:00,51.8,43.0,30.22,SE,128,0.0,0.0,72,0.00,,,0.00,Weather View 32 v70,2013-01-24 02:05:00,
2013-01-23 20:10:00,51.8,43.0,30.22,SE,128,0.0,0.0,72,0.00,,,0.00,Weather View 32 v70,2013-01-24 02:10:00,
2013-01-23 20:15:00,51.8,43.0,30.22,SE,128,0.0,0.0,72,0.00,,,0.00,Weather View 32 v70,2013-01-24 02:15:00,
2013-01-23 20:20:00,51.7,42.9,30.23,SE,128,0.0,0.0,72,0.00,,,0.00,Weather View 32 v70,2013-01-24 02:20:00,
2013-01-23 20:30:00,51.7,42.9,30.24,SE,128,0.0,0.0,72,0.00,,,0.00,Weather View 32 v70,2013-01-24 02:30:00,
2013-01-23 20:40:00,51.5,42.8,30.24,SE,128,0.0,0.0,72,0.00,,,0.00,Weather View 32 v70,2013-01-24 02:40:00,
2013-01-23 20:45:00,51.5,42.8,30.24,SE,128,0.0,0.0,72,0.00,,,0.00,Weather View 32 v70,2013-01-24 02:45:00,
2013-01-23 20:55:00,51.5,42.8,30.25,SE,128,0.0,0.0,72,0.00,,,0.00,Weather View 32 v70,2013-01-24 02:55:00,
2013-01-23 21:05:00,51.4,43.0,30.25,SE,128,0.0,0.0,73,0.00,,,0.00,Weather View 32 v70,2013-01-24 03:05:00,
2013-01-23 21:15:00,51.3,42.9,30.24,SE,128,0.0,0.0,73,0.00,,,0.00,Weather View 32 v70,2013-01-24 03:15:00,
2013-01-23 21:20:00,51.3,42.6,30.24,SE,128,0.0,0.0,72,0.00,,,0.00,Weather View 32 v70,2013-01-24 03:20:00,
2013-01-23 21:30:00,51.0,42.6,30.24,SE,128,0.0,0.0,73,0.00,,,0.00,Weather View 32 v70,2013-01-24 03:30:00,
2013-01-23 21:40:00,50.6,42.2,30.24,SE,128,0.0,0.0,73,0.00,,,0.00,Weather View 32 v70,2013-01-24 03:40:00,
2013-01-23 21:50:00,50.1,42.1,30.25,SE,128,0.0,0.0,74,0.00,,,0.00,Weather View 32 v70,2013-01-24 03:50:00,
2013-01-23 21:55:00,50.0,42.4,30.25,SE,128,0.0,0.0,75,0.00,,,0.00,Weather View 32 v70,2013-01-24 03:55:00,
2013-01-23 22:05:00,49.7,42.1,30.25,SE,128,0.0,0.0,75,0.00,,,0.00,Weather View 32 v70,2013-01-24 04:05:00,
2013-01-23 22:10:00,49.6,42.0,30.25,SE,128,0.0,0.0,75,0.00,,,0.00,Weather View 32 v70,2013-01-24 04:10:00,
2013-01-23 22:20:00,49.4,42.1,30.26,SE,128,0.0,0.0,76,0.00,,,0.00,Weather View 32 v70,2013-01-24 04:20:00,
2013-01-23 22:25:00,49.2,41.9,30.26,SE,128,0.0,0.0,76,0.00,,,0.00,Weather View 32 v70,2013-01-24 04:25:00,
2013-01-23 22:35:00,49.7,42.4,30.25,SE,128,0.0,3.0,76,0.00,,,0.00,Weather View 32 v70,2013-01-24 04:35:00,
2013-01-23 22:40:00,50.0,42.4,30.26,NE,50,3.0,8.0,75,0.00,,,0.00,Weather View 32 v70,2013-01-24 04:40:00,
2013-01-23 22:50:00,49.8,41.8,30.26,NE,45,3.0,8.0,74,0.00,,,0.00,Weather View 32 v70,2013-01-24 04:50:00,
2013-01-23 22:55:00,49.8,41.5,30.26,NE,46,0.0,8.0,73,0.00,,,0.00,Weather View 32 v70,2013-01-24 04:55:00,
2013-01-23 23:00:00,49.6,41.3,30.26,NE,46,0.0,8.0,73,0.00,,,0.00,Weather View 32 v70,2013-01-24 05:00:00,
2013-01-23 23:10:00,49.4,41.1,30.27,NE,46,2.0,8.0,73,0.00,,,0.00,Weather View 32 v70,2013-01-24 05:10:00,
2013-01-23 23:11:00,49.4,41.1,30.27,NE,46,2.0,8.0,73,0.00,,,0.00,Weather View 32 v70,2013-01-24 05:11:00,
2013-01-23 23:15:00,49.2,40.9,30.27,NE,40,5.0,8.0,73,0.00,,,0.00,Weather View 32 v70,2013-01-24 05:15:00,
2013-01-23 23:25:00,49.1,40.8,30.27,NNE,29,3.0,8.0,73,0.00,,,0.00,Weather View 32 v70,2013-01-24 05:25:00,
2013-01-23 23:30:00,49.2,40.9,30.28,NNE,18,6.0,8.0,73,0.00,,,0.00,Weather View 32 v70,2013-01-24 05:30:00,
2013-01-23 23:35:00,49.0,41.1,30.28,NNE,19,5.0,8.0,74,0.00,,,0.00,Weather View 32 v70,2013-01-24 05:35:00,
2013-01-23 23:45:00,48.5,40.6,30.29,NNE,29,5.0,12.0,74,0.00,,,0.00,Weather View 32 v70,2013-01-24 05:45:00,
2013-01-23 23:50:00,48.4,40.1,30.29,North,4,9.0,13.0,73,0.00,,,0.00,Weather View 32 v70,2013-01-24 05:50:00,
2013-01-23 23:55:00,48.2,39.6,30.29,NNE,14,9.0,13.0,72,0.00,,,0.00,Weather View 32 v70,2013-01-24 05:55:00,